Flag for U.S.A. Weather past 2 weeks in Buffalo, New York, U.S.A.

Now
39 °F

Overcast.


Feels Like: 29 °F
Forecast: 29 / 39 °F
Wind: 20 mph from Southwest

Location: Greater Buffalo International Airport

Current Time: Mar 30, 2015 at 2:56:20 AM

Latest Report: Mar 30, 2015 at 1:54 AM


Visibility: 10 mi

Pressure: 29.74 "Hg

Humidity: 55%

Dew point: 24 °F

Location of BuffaloLocation

Historic Weather in Buffalo — Graph

°F

Buffalo temperature yesterday

Maximum temperature yesterday: 41 °F (at 7:54 PM)
Minimum temperature yesterday: 16 °F (at 3:54 AM)
Average temperature yesterday: 29 °F

Past Weeks' High & Low Weather Summary

 TemperatureHumidityPressure
High46 °F (Mar 25, 2:54 PM)97% (Mar 16, 10:54 PM)30.40 "Hg (Mar 16, 10:54 PM)
Low16 °F (Mar 29, 3:54 AM)30% (Mar 19, 4:54 PM)29.64 "Hg (Mar 17, 3:54 AM)
Average30 °F66%30.10 "Hg
* Reported Mar 15 1:54 AM — Mar 30 1:54 AM, Buffalo, Weather by CustomWeather, © 2015

Note: Actual official high and low records may vary slightly from our data, if they occured in-between our weather recording intervals... More about our weather records

Advertising

Buffalo weather history for previous 24 hours

 ConditionsComfort  
Time TempWeatherWind HumidityBarometerVisibility
1:54 AM
Mon, Mar 30
39 °FOvercast.20 mph55%29.74 "Hg10 mi
12:54 AM37 °FMostly cloudy.24 mph62%29.77 "Hg10 mi
11:54 PM
Sun, Mar 29
36 °FOvercast.16 mph64%29.84 "Hg10 mi
10:54 PM36 °FLight snow. Mostly cloudy.17 mph62%29.90 "Hg9 mi
9:54 PM40 °FStrong thunderstorms. Mostly cloudy.25 mph40%29.92 "Hg5 mi
8:54 PM41 °FMostly cloudy.18 mph32%29.90 "Hg10 mi
7:54 PM41 °FCloudy.16 mph33%29.93 "Hg10 mi
6:54 PM39 °FBroken clouds.10 mph43%29.97 "Hg10 mi
5:54 PM39 °FBroken clouds.8 mph45%30.01 "Hg10 mi
4:54 PM38 °FBroken clouds.8 mph48%30.06 "Hg10 mi
3:54 PM36 °FScattered clouds.15 mph48%30.12 "Hg10 mi
2:54 PM36 °FPassing clouds.15 mph46%30.18 "Hg10 mi
1:54 PM35 °FPassing clouds.21 mph40%30.22 "Hg10 mi
12:54 PM33 °FPassing clouds.17 mph54%30.26 "Hg10 mi
11:54 AM32 °FScattered clouds.16 mph52%30.30 "Hg10 mi
10:54 AM30 °FScattered clouds.17 mph56%30.32 "Hg10 mi
9:54 AM27 °FScattered clouds.12 mph61%30.32 "Hg10 mi
8:54 AM23 °FPassing clouds.15 mph68%30.33 "Hg10 mi
7:54 AM20 °FClear.12 mph74%30.33 "Hg10 mi
6:54 AM17 °FClear.7 mph76%30.32 "Hg10 mi
5:54 AM17 °FClear.7 mph76%30.31 "Hg10 mi
4:54 AM17 °FClear.9 mph74%30.30 "Hg10 mi
3:54 AM16 °FClear.6 mph80%30.29 "Hg10 mi
2:54 AM18 °FClear.5 mph77%30.29 "Hg10 mi
Weather by CustomWeather, © 2015

See weather overviewHow to use our weather pages